BYDGOSKI BIEG URODZINOWY

Organizator:
Miasto Bydgoszcz
Data:
2019-04-14
Miejsce:
Bydgoszcz
Dystans:
5 km
Zgłoszonych:
1499
Wystartowało:
1277
Nie ukończyło:
4
Ukończyło:
1273
Na trasie:
4

Klasyfikacja: K30

Wyniki nieoficjalne !!!
Wyniki uproszczone: PDF | PDF2 | CSV
Klasyfikacje w punktach pomiarowych: Meta
Klasyfikacje wg kategorii: Wszyscy | K-Open | M-Open | SM Drużyny | SM Kobiety | SM Mężczyźni | K10 | M10 | K18 | M18 | K20 | M20 | K30 | M30 | K40 | M40 | K50 | M50 | K60 | M60

MscZawodnikNumerKlubMiejscowośćKrajKategoriaMkatK/MCzas startuCzas
netto
5km
Czas
brutto
5km
Różn.Tempo
min/km
Tempo
km/h
       
1SZENK Marta 534BYDGOSZCZK301K 100:00:0200:18:57.9500:19:00.70 3:4715.8
2PĘKAŁA Aleksandra 1439RUN PASJABYDGOSZCZK302K 200:00:0300:19:49.0500:19:52.50+00:00:513:5715.1
3MICHALIK Joanna 460ARUNBYDGOSZCZK303K 700:00:0200:21:35.7000:21:38.10+00:02:374:1913.9
4ANDRZEJEWSKA Sylwia 265BYDGOSZCZK304K 1300:00:0400:23:02.5000:23:06.80+00:04:044:3613
5MROTEK Katarzyna 67ON THE MOVEKRUSZYN KRAJEŃSKIK305K 1600:01:0400:23:30.7500:24:35.70+00:04:324:4212.8
6PILAKOWSKA Angelika 644ELTRA W BIEGUŁOCHOWOK306K 1800:00:1100:23:39.2500:23:50.40+00:04:414:4312.7
7DZIKOWSKA Paulina 782GRUDZIĄDZK307K 2100:00:1800:24:00.1000:24:18.45+00:05:024:4812.5
8DOBRZYŃSKA Ewa 234BYDGOSZCZK308K 2300:00:3900:24:13.9500:24:53.35+00:05:164:5012.4
9WIŚNIEWSKA-KACZOR Iga 981GRUDZIĄDZK309K 2700:00:0000:24:25.6500:24:25.65+00:05:274:5312.3
10ROGALSKA Justyna 944BYDGOSZCZK3010K 2800:00:1800:24:29.4500:24:47.75+00:05:314:5312.3
11KLAWIKOWSKA Julita 613TKKF KOLEJARZ BYDGOSZCZBYDGOSZCZK3011K 2900:00:3700:24:31.3000:25:08.85+00:05:334:5412.2
12KEPHART Kimberly 812ZIELONKAK3012K 3000:00:2100:24:35.6000:24:57.15+00:05:374:5512.2
13PIĄTEK Justyna 1179GDAŃSKK3013K 3100:00:2200:24:36.1000:24:58.50+00:05:384:5512.2
14MATKOWSKA Monika 1496BYDGOSZCZK3014K 3400:00:4400:24:53.7000:25:38.15+00:05:554:5812
15POZORSKA Joanna 953BIEGAJĄCE ŚLIWICELIŃSKK3015K 3500:00:1000:24:58.0500:25:08.15+00:06:004:5912
16TARCZYŃSKA Marta 314COOKIETEAMRUNNERSBYDGOSZCZK3016K 3600:00:3300:25:08.9500:25:42.00+00:06:115:0111.9
17BŁASZCZYK Agnieszka 1372BYDGOSZCZK3017K 3800:01:0000:25:21.9500:26:22.35+00:06:245:0411.8
18MISUN-NOWAK Katarzyna 1228AMS TRIATHLONBYDGOSZCZK3018K 3900:00:2800:25:22.6500:25:51.30+00:06:245:0411.8
19NAGORZYSKA Sylwia 151BIEGAM WSPIERAM MOTYWUJĘBYDGOSZCZK3019K 4200:00:0900:25:28.2000:25:37.20+00:06:305:0511.8
20MATUSIAK Aneta 1203NKUBBYDGOSZCZK3020K 4500:00:1200:25:35.0500:25:47.55+00:06:375:0711.7
21POTRZEBOWSKA Agata 652DEAF I #B3KKOBIETAK3021K 4700:00:3000:25:40.6500:26:11.10+00:06:425:0811.7
22CHMURA Ewa 1291GRUDZIĄDZK3022K 5200:00:1500:25:51.7000:26:07.55+00:06:535:1011.6
23BOROWICZ Anna 832BYDGOSZCZK3023K 5300:00:3800:25:55.9000:26:34.00+00:06:575:1111.6
24SOBANIA-TRENDEWICZ Paulina 1172BYDGOSZCZK3024K 5700:01:3900:26:11.0500:27:50.90+00:07:135:1411.5
25SZPYT Ania 635BYDGGOSZCZK3025K 5900:00:2800:26:17.1500:26:45.25+00:07:195:1511.4
26DEKOWSKA Monika 1414WĘTFIEK3026K 6000:00:3200:26:20.4000:26:53.10+00:07:225:1611.4
27BOROWIEC Wioleta 636BBL SZUBINSZUBINK3027K 6100:00:2000:26:21.4000:26:41.45+00:07:235:1611.4
28PIECZYŃSKA Joanna 767BYDGOSZCZK3028K 6400:01:0000:26:27.3500:27:27.60+00:07:295:1711.3
29JANUSZKIEWICZ Judyta 525BIEGAM PO PIWOBYDGOSZCZK3029K 6700:00:1700:26:31.9500:26:49.80+00:07:345:1811.3
30ULATOWSKA Sylwia 957TORUŃK3030K 7100:01:1500:26:37.3500:27:53.20+00:07:395:1911.3
31KUJDA Dorota 116OSIELSKOK3031K 7200:00:3600:26:38.6500:27:15.50+00:07:405:1911.3
32TOMCZYK Agata 785BYDGOSZCZK3032K 7600:01:3800:26:44.8000:28:23.40+00:07:465:2111.2
33GONCERZ Katarzyna 299ANANASYCZELADŹK3033K 7700:01:3300:26:52.0000:28:25.85+00:07:545:2211.2
34MAJEWSKA Monika 750LUCIMK3034K 8200:01:0500:26:59.4500:28:04.45+00:08:015:2311.1
35TRAWCZYŃSKA Katarzyna 1280BYDGOSZCZK3035K 8300:01:4200:27:00.6000:28:42.65+00:08:025:2411.1
36MAGDZIARZ Katarzyna 1012KANCELARIA HMMBYDGOSZCZK3036K 8400:01:0600:27:02.7500:28:08.85+00:08:045:2411.1
37WASILEWSKA-MICHALAK Agata 684AMSOSÓWIECK3037K 8500:00:3100:27:04.3500:27:36.10+00:08:065:2511.1
38ŚWIETLIK Michalina 449BYDGOSZCZK3038K 8600:01:0900:27:06.9000:28:16.05+00:08:085:2511.1
39GUTKOWSKA Agnieszka 1213BYDGOSZCZK3039K 9000:01:1800:27:14.1000:28:32.55+00:08:165:2611
40WITKOWSKA Monika 1428BYDGOSZCZK3040K 9300:01:1800:27:16.0000:28:34.30+00:08:185:2711
41CZYŻEWSKA Justyna 103BRZOZAK3041K 9500:01:3400:27:18.5500:28:53.10+00:08:205:2711
42BIEGAŁA Agnieszka 1434RENEGATINOWROCŁAWK3042K 9700:00:3400:27:23.3000:27:57.30+00:08:255:2811
43KRZEMIŃSKA Jolanta 378BYDGOSZCZK3043K 9900:00:2500:27:28.9000:27:54.85+00:08:305:2910.9
44MASŁOWSKA Angelika 915SZUBINK3044K 10100:00:1900:27:30.0000:27:49.65+00:08:325:3010.9
45SZABLIŃSKA Honorata 1041KOŁACZKOWOK3045K 10200:00:1900:27:30.3500:27:49.65+00:08:325:3010.9
46PRZYBYŁA Agnieszka 1452BYDGOSZCZK3046K 10600:01:4400:27:36.9000:29:21.75+00:08:385:3110.9
47GRABOWSKA Marlena 1005BYDGOSZCZK3047K 11600:01:1200:27:59.7000:29:12.45+00:09:015:3610.7
48LEWANDOWSKA Izabela 1002BYDGOSZCZK3048K 11900:01:1300:28:00.0000:29:13.20+00:09:025:3610.7
49WÓJTOWICZ Monika 457BYDGOSZCZK3049K 12200:00:2700:28:00.6500:28:28.60+00:09:025:3610.7
50TYKWIŃSKA Agnieszka 1127COOKIETEAMRUNNERSBYDGOSZCZK3050K 12400:00:2700:28:01.9000:28:29.45+00:09:035:3610.7
51ŚWIĄTEK Hanna 389BORNE SULINOWOK3051K 12500:00:2400:28:02.7500:28:26.80+00:09:045:3610.7
52WIENEKE Annika 611BYDGOSZCZK3052K 12600:00:1500:28:04.5000:28:19.85+00:09:065:3610.7
53CHYLIŃSKA Monika 1335BYDGOSZCZK3053K 12700:00:2200:28:06.6500:28:28.80+00:09:085:3710.7
54PŁACZKOWSKA Magdalena 239BYDGOSZCZK3054K 12800:00:4000:28:07.2500:28:47.30+00:09:095:3710.7
55BOROWICKA Anna 1464BYDGOSZCZK3055K 13000:00:3300:28:07.9000:28:41.65+00:09:095:3710.7
56WILCZYŃSKA Anita 267BYDGOSZCZK3056K 13100:01:0600:28:11.0500:29:17.45+00:09:135:3810.6
57JEZIORSKA Monika 507BYDGOSZCZK3057K 13300:01:5200:28:12.7500:30:04.80+00:09:145:3810.6
58WAWRZYNIAK Karolina 242BYDGOSZCZK3058K 13800:00:4000:28:16.4000:28:56.45+00:09:185:3910.6
59ŚWIGOŃ Aneta 810BYDGOSZCZK3059K 14100:00:4300:28:17.4500:29:01.40+00:09:195:3910.6
60GAJTKOWSKA Emilia 1304TORUŃK3060K 14300:01:1500:28:19.0000:29:34.30+00:09:215:3910.6
61OŻGA Agnieszka 91BYDGOSZCZK3061K 14400:00:1900:28:19.8500:28:39.75+00:09:215:4010.6
62MATUSZEWSKA Monika 343BYDGOSZCZK3062K 14600:00:4300:28:20.9000:29:04.35+00:09:225:4010.6
63ROGOZIŃSKA Karolina 692BYDGOSZCZK3063K 15300:00:3600:28:27.5500:29:04.50+00:09:295:4110.5
64SCHUMACHER-RATAJ Marta 129BYDGOSZCZK3064K 15400:00:5900:28:28.5500:29:28.50+00:09:305:4110.5
65PODEMSKA Patrycja 260FOREST GANGBYDGOSZCZK3065K 15600:00:1300:28:30.8500:28:44.15+00:09:325:4210.5
66BIEŃKOWSKA Anna 1083TOMASZEWOK3066K 15700:00:2300:28:31.3000:28:55.20+00:09:335:4210.5
67ROSLONSKA Kinga 530BYDGOSZCZK3067K 16200:01:4000:28:41.4000:30:22.05+00:09:435:4410.5
68MARAŚKIEWICZ Agnieszka 275BYDGOSZCZK3068K 16300:01:1700:28:42.3000:29:59.35+00:09:445:4410.5
69GOŁATA Agnieszka 194WILCZA WATAHADĄBROWA CHEŁMIŃSKAK3069K 16400:00:2900:28:44.2000:29:13.95+00:09:465:4410.4
70DOLATA Aneta 1144BYDGOSZCZK3070K 16800:00:2400:28:53.8500:29:17.90+00:09:555:4610.4
71GIPP Małgorzata 1064BYDGOSZCZK3071K 16900:01:5600:28:55.6000:30:51.70+00:09:575:4710.4
72MELWIŃSKA Paulina 63RUN BYDGOSZCZBYDGOSZCZK3072K 17300:01:1300:29:00.3000:30:14.10+00:10:025:4810.3
73JARUSZEWSKA Joanna 602BYDGOSZCZK3073K 17400:01:2300:29:01.6500:30:24.90+00:10:035:4810.3
74CHMIELEWSKA Agnieszka 184BYDGOSZCZK3074K 18200:00:4300:29:14.3000:29:57.65+00:10:165:5010.3
75DRĄŻYK Justyna 587WAŁDOWO KRÓLEWSKIEK3075K 18400:00:3100:29:14.8500:29:46.50+00:10:165:5110.3
76BŁAŻEK Kasia 1196BIAŁE BŁOTAK3076K 18800:01:0500:29:21.4500:30:27.25+00:10:235:5210.2
77ZUŻYDŁO Zuzanna 797BYDGOSZCZK3077K 19000:00:5500:29:21.9500:30:17.50+00:10:245:5210.2
78JARZEMSKA Alicja 1367BYDGOSZCZ TRIATHLON TEAMBYDGOSZCZK3078K 19300:01:3000:29:26.8000:30:57.55+00:10:285:5310.2
79ADAMCZYK Agnieszka 737NAKŁO NAD NOTECIĄK3079K 19400:02:0300:29:28.8500:31:31.85+00:10:305:5310.2
80LASKOWSKA Aleksandra 1446PRZYŁĘKIK3080K 19500:01:1600:29:29.0000:30:45.70+00:10:315:5310.2
81KUBOWICZ-KAMIŃSKA Hania 212WATAHA BYDGOSZCZNIEMCZK3081K 20000:01:0000:29:35.7000:30:36.65+00:10:375:5510.1
82LEWANDOWSKA Malwina 1215BYDGOSZCZK3082K 20100:01:0000:29:36.2000:30:36.25+00:10:385:5510.1
83PIECHOCIŃSKA Dorota 1279RINORYNARZEWOK3083K 20300:00:4900:29:36.9500:30:26.60+00:10:395:5510.1
84BESS Anna 421BYDGOSZCZK3084K 20400:01:3800:29:37.7000:31:16.40+00:10:395:5510.1
85WIELUŃSKA Dorota 408BYDGOSZCZK3085K 20700:01:1000:29:41.1500:30:51.50+00:10:435:5610.1
86SIUDOWSKA Marta 799BYDGOSZCZK3086K 21000:01:0400:29:44.3000:30:48.50+00:10:465:5610.1
87OSTROWSKA Justyna 300GULCZEWOK3087K 21300:02:0000:29:45.9000:31:46.70+00:10:475:5710.1
88FLOREK Milena 142RUNADDICTSBYDGOSZCZK3088K 21600:01:1000:29:47.9500:30:58.65+00:10:505:5710.1
89STROZYNSKA Sandra 1316BYDGOSZCZK3089K 22900:01:4400:30:01.1500:31:45.55+00:11:036:0010
90DANIELEK Ewa 55WARSZAWAK3090K 23000:00:3700:30:01.4000:30:39.05+00:11:036:0010
91PODOSEK Magdalena 1332BYDGOSZCZBYDGOSZCZK3091K 23300:01:4300:30:04.6000:31:47.95+00:11:066:0010
92KRASIŃSKA Katarzyna 95BYDGOSZCZK3092K 23400:01:0200:30:04.9000:31:07.10+00:11:066:0110
93WIATROWSKA Katarzyna 554BYDGOSZCZK3093K 23500:01:0400:30:05.1000:31:10.05+00:11:076:0110
94LEWANDOWSKA Agnieszka 216BYDGOSZCZK3094K 24200:01:2500:30:14.2000:31:40.00+00:11:166:039.9
95ŻURAWSKA Marta 804BYDGOSZCZK3095K 24300:01:0600:30:16.5500:31:23.15+00:11:186:039.9
96RYDELSKA Maria 1425BIEGAM Z BENIĄTUCHOLAK3096K 24800:00:1500:30:22.4000:30:37.95+00:11:246:049.9
97GRZYWACZ Karolina 175BYDGOSZCZK3097K 25400:00:4800:30:26.6000:31:15.45+00:11:286:059.9
98ADAMCZAK Ewa 1351BYDGOSZCZK3098K 25800:00:4100:30:29.6000:31:10.75+00:11:316:059.8
99WYCZLING Agnieszka 1364INNOVAD TEAMBYDGOSZCZK3099K 25900:00:4000:30:30.1500:31:10.50+00:11:326:069.8
100GONCERZEWICZ Katarzyna 388BYDGOSZCZK30100K 26500:01:5300:30:37.8500:32:30.90+00:11:396:079.8
101ŻUCHELKOWSKA Agata 178BYDGOSZCZK30101K 26600:01:3300:30:37.9000:32:11.05+00:11:396:079.8
102PESTKA Anna 304BYDGOSZCZK30102K 26700:01:4300:30:38.2000:32:21.75+00:11:406:079.8
103JOPPEK Jolanta 1239BYDGOSZCZK30103K 28000:02:0400:30:49.9500:32:54.90+00:11:526:109.7
104GABEŃSKA Daria 1237J&D&JBYDGOSZCZK30104K 28200:02:0400:30:50.5000:32:55.05+00:11:526:109.7
105MALUDZIŃSKA Aleksandra 916SZUBINK30105K 28300:01:1100:30:50.6500:32:02.40+00:11:526:109.7
106TOKARSKA Alicja 146VEGE RUNNERSBYDGOSZCZK30106K 28400:01:2200:30:51.4500:32:13.95+00:11:536:109.7
107MAĆKOWSKA Agnieszka 794BYDGOSZCZK30107K 28800:00:5600:30:57.1000:31:53.50+00:11:596:119.7
108CHLEBKOVÁ Judita 567MARTINK30108K 28900:01:4000:30:59.3500:32:39.35+00:12:016:119.7
109JANUSZKIEWICZ Kornelia 295WATAHA BYDGOSZCZBYDGOSZCZK30109K 29200:02:0800:31:02.5000:33:10.85+00:12:046:129.7
110PAWLAK Magdalena 1241GRUDZIĄDZK30110K 29500:00:3800:31:08.7000:31:47.05+00:12:106:139.6
111PECHE Aleksandra 964KLUBZDROWIA 24HBYDGOSZCZK30111K 29600:01:1400:31:08.7500:32:23.50+00:12:106:139.6
112KRYCH Alicja 1361SOPOTK30112K 29800:00:3900:31:10.6500:31:50.25+00:12:126:149.6
113WÓJCIK Anna 37BYDGOSZCZK30113K 30100:00:3200:31:11.8000:31:44.25+00:12:136:149.6
114CIESIELSKA Agnieszka 1131NAKŁOK30114K 30400:01:5000:31:18.4000:33:08.55+00:12:206:159.6
115NOWICKA Marta 1277NIGHT RUNNERSTURK30115K 30500:01:2000:31:21.8000:32:42.35+00:12:236:169.6
116NIEMCZEWSKA Zofia 1094ŁABISZYN RUNNERSŁABISZYNK30116K 30600:01:1000:31:22.1000:32:32.65+00:12:246:169.6
117DRESLERSKA Agnieszka 273BIAŁE BŁOTAK30117K 30700:00:4900:31:24.0000:32:13.15+00:12:266:169.6
118GRUŻEWSKA Justyna 815BYDGOSZCZK30118K 30800:01:3100:31:24.8000:32:56.15+00:12:266:179.5
119LEWANDOWSKA Magdalena 1211BYDGOSZCZK30119K 31000:01:1900:31:27.6000:32:47.50+00:12:296:179.5
120SAMUL Ewa 506BYDGOSZCZK30120K 31200:01:5700:31:32.4500:33:30.05+00:12:346:189.5
121KALISZEWSKA Agnieszka 578BYDGOSZCZK30121K 31800:00:4700:31:40.3000:32:27.80+00:12:426:209.5
122BRĄGIEL Anna 1026VEGE RUNNERSBYDGOSZCZK30122K 32400:01:3600:31:46.1000:33:22.35+00:12:486:219.4
123CIŻMOWSKA Anna 246BYDGOSZCZK30123K 32900:00:3500:31:53.6500:32:29.35+00:12:556:229.4
124SŁOWIŃSKA Marta 1359BYDGOSZCZK30124K 33000:01:0500:31:53.7000:32:59.25+00:12:556:229.4
125DEMBEK Magdalena 424BYDGOSZCZK30125K 33100:01:0900:31:55.8000:33:05.40+00:12:576:239.4
126KAŹMIERCZAK Monika 666BEŁCHATÓWK30126K 33500:01:2600:31:58.8500:33:25.45+00:13:006:239.4
127JASIAK Joanna 923SOLEC KUJAWSKIK30127K 33600:01:3200:32:01.9500:33:34.55+00:13:046:249.4
128STEFAŃSKA Wiesława 751BYDGOSZCZK30128K 33800:02:0100:32:02.4000:34:03.50+00:13:046:249.4
129ZDUNKIEWICZ Hanna 659NULLK30129K 33900:02:0200:32:04.2500:34:07.10+00:13:066:259.4
130RADZIŃSKA Joanna 366EXIMO EXTREME TEAMBYDGOSZCZK30130K 34100:01:3700:32:05.8000:33:43.75+00:13:076:259.3
131GŁOWACKA Daria 1268BYDGOSZCZK30131K 34300:01:3200:32:06.3500:33:38.35+00:13:086:259.3
132KATLEWSKA Marika 700CHEŁMNOK30132K 34800:01:3800:32:08.7000:33:47.30+00:13:106:259.3
133KILIŃSKA Magdalena 193HELIX POMATIAŻOŁĘDOWOK30133K 35100:00:4000:32:13.2000:32:54.05+00:13:156:269.3
134KOCZOROWSKA Kamila 190BYDGOSZCZK30134K 35500:00:3000:32:18.1000:32:48.95+00:13:206:279.3
135TRUŚ Karolina 1362OSIELSKOK30135K 35700:01:3800:32:20.0000:33:58.60+00:13:226:289.3
136BALCERZAK - DANILEWICZ Katarzyna 370WARSZAWAK30136K 35800:01:4600:32:21.0000:34:07.30+00:13:236:289.3
137KUJAWA Magdalena 1366GOŚCIERADZK30137K 35900:01:0900:32:21.5500:33:30.70+00:13:236:289.3
138SKIBIŃSKA Paulina 579BYDGOSZCZK30138K 36100:01:1700:32:26.5500:33:44.05+00:13:286:299.2
139MATUSZEWSKA Agnieszka 1046BYDGOSZCZK30139K 36800:01:3100:32:35.4000:34:06.45+00:13:376:319.2
140NOWACZEWSKA Paulina 288BYDGOSZCZK30140K 37200:01:3400:32:38.9500:34:12.95+00:13:416:319.2
141PRZYMORSKA-WIERCIOCH Joanna 1116KDK KOŚCIÓŁ DLA KAŻDEGOWĄGROWIECK30141K 37300:00:5300:32:39.6500:33:32.80+00:13:416:319.2
142KUŹNIEWSKA Aleksandra 1168PRĄDKIK30142K 37400:01:0700:32:45.1500:33:52.85+00:13:476:339.2
143VAZQUEZ Alicia 897BYDGOSZCZK30143K 37600:01:3900:32:45.7500:34:25.45+00:13:476:339.2
144OLEJNICZAK Hanna 1470BYDGOSZCZK30144K 37800:00:2900:32:46.5000:33:16.15+00:13:486:339.2
145KWIATKOWSKA Joanna 730ŚWIECIEŚWIECIEK30145K 38500:01:0000:33:03.2500:34:03.30+00:14:056:369.1
146NOWAKOWSKA Marta 796DEAF GARMINBYDGOSZCZK30146K 38900:00:2900:33:05.0500:33:34.25+00:14:076:379.1
147BIELUSZEWSKA Mirela 771BBKTSBYDGOSZCZK30147K 39100:02:0200:33:09.1000:35:11.50+00:14:116:379
148MICHTA Iwona 728SPÓJNIA BIAŁE BŁOTAMUROWANIECK30148K 39200:02:0200:33:09.7000:35:11.90+00:14:116:379
149PANTKOWSKA Karolina 1107BYDGOSZCZK30149K 39500:01:5700:33:12.3500:35:10.25+00:14:146:389
150KUBIAK Katarzyna 1380DOBRCZK30150K 39800:00:2200:33:14.3000:33:36.95+00:14:166:389
151BURSKA Malgorzata 1413DOBRCZK30151K 39900:00:2100:33:15.5500:33:36.55+00:14:176:399
152KWASIGROCH Aleksandra 1310NAKŁO NAD NOTECIĄK30152K 40300:01:0700:33:19.1000:34:26.35+00:14:216:399
153SZYMAŃSKA Alicja 1187FUNDACJA WIELKA RODZINABYDGOSZCZK30153K 40400:01:2300:33:19.4000:34:42.65+00:14:216:399
154ARAGONES Amandine 1478BYDGOSZCZK30154K 40800:01:2800:33:29.4000:34:57.60+00:14:316:419
155DEFEMME Céline 938BYDGOSZCZK30155K 40900:01:2700:33:30.2000:34:57.40+00:14:326:429
156MUCHA-BOINSKA Anna 1347SOLEC KUJAWSKIK30156K 41000:00:5400:33:31.7500:34:26.05+00:14:336:428.9
157PRZYGOCKA Katarzyna 401BYDGOSZCZK30157K 41200:00:5400:33:32.8000:34:27.10+00:14:346:428.9
158GUL Justyna 1339BYDGOSZCZK30158K 41300:00:2500:33:33.5500:33:58.90+00:14:356:428.9
159WINIARZ Karolina 1183BYDGOSZCZK30159K 41800:00:5200:33:39.2500:34:31.35+00:14:416:438.9
160ADASZAK Katarzyna 1263RUN PASJABYDGOSZCZK30160K 42700:01:1700:33:56.7500:35:14.10+00:14:586:478.8
161GSTALTER Stephanie 1293KRUCZYN KRAJENSKIK30161K 42800:01:2700:33:57.8000:35:25.55+00:14:596:478.8
162SACKREUTER Martina 881BYDGOSZCZK30162K 42900:01:4900:33:58.1500:35:47.20+00:15:006:478.8
163JANKOWSKA Agnieszka 948CS GROUP RUNNERS TEAMBYDGOSZCZK30163K 43400:01:4700:34:02.6000:35:50.25+00:15:046:488.8
164KUCZYŃSKA Agnieszka 1320GIERKOWOK30164K 43700:01:2400:34:10.6000:35:35.15+00:15:126:508.8
165KALINOWSKA Lidia 1047MAŁE CZYSTEK30165K 43900:01:2500:34:11.6000:35:37.10+00:15:136:508.8
166JAŻDŻEWSKA Aleksandra 872BYDGOSZCZK30166K 44000:01:1400:34:12.3500:35:26.85+00:15:146:508.8
167ŁADNIAK Bernadeta 890CZARNOWOK30167K 44100:01:2400:34:12.4500:35:37.35+00:15:146:508.8
168TARASIEWICZ Beata 570BYDGOSZCZK30168K 44500:00:4600:34:13.7500:35:00.10+00:15:156:508.8
169ZALEWSKA Paulina 1259BYDGOSZCZK30169K 44600:00:2500:34:17.3000:34:42.35+00:15:196:518.8
170REINKE Joanna 281BYDGOSZCZK30170K 44700:00:0400:34:17.6500:34:22.10+00:15:196:518.7
171KROPIŃSKA Monika 84ZAMOŚĆK30171K 45000:01:4300:34:20.7000:36:04.15+00:15:226:528.7
172ORZECHOWSKA Agnieszka 359BYDGOSZCZK30172K 45300:01:1000:34:28.8500:35:39.65+00:15:306:538.7
173GOSZCZAK Magdalena 706WTELNOK30173K 45600:01:0200:34:40.2500:35:42.30+00:15:426:568.7
174SZULC Daria 864BUDGOSZCZK30174K 46100:01:3700:34:45.6500:36:22.90+00:15:476:578.6
175BIAŁEK Anna 1261BIEGAJ Z DĘBAMIOSIELSKOK30175K 46600:00:3900:34:53.3500:35:33.30+00:15:556:588.6
176BASSET Laurence 1292BIALE BLOTAK30176K 46900:01:2900:34:56.0000:36:25.90+00:15:586:598.6
177LAMAZE Julie 1370BYDGODZCZK30177K 47000:01:2900:34:57.0500:36:26.15+00:15:596:598.6
178CZARNECKA -PIJAROWSKA Dominika 1484BYDGOSZCZK30178K 47200:02:1200:35:02.5500:37:14.75+00:16:047:008.6
179ŁOŻYKOWSKA Justyna 1463INOWROCŁAWK30179K 47400:00:3500:35:10.2000:35:45.25+00:16:127:028.5
180BROWNELL Julie 1286NIEMCZK30180K 47600:01:2900:35:10.8500:36:40.75+00:16:127:028.5
181OLSZEWSKA Karolina 619BIAŁE BŁOTAK30181K 47900:00:4900:35:22.3000:36:11.75+00:16:247:048.5
182SŁOMSKA Monika 543BRAKŚWIECIEK30182K 48000:01:3200:35:24.3000:36:56.30+00:16:267:048.5
183WIĘCKOWSKA Karolina 1418BYDGOSZCZK30183K 48300:00:5000:35:26.8500:36:17.70+00:16:287:058.5
184DZIEWIECZYŃSKA Arleta 428KCYNIAK30184K 48400:01:1300:35:29.2000:36:43.00+00:16:317:068.5
185TWARDOWSKA Sylwia 252BYDGOSZCZK30185K 48500:01:5900:35:31.9500:37:31.40+00:16:347:068.4
186CYCHOWSKA Anna 515BYDGOSZCZK30186K 48600:01:4600:35:38.9000:37:25.65+00:16:407:078.4
187RÓŻAŃSKA Katarzyna 21BYDGOSZCZK30187K 48700:01:4000:35:41.7000:37:21.95+00:16:437:088.4
188GIPP Karolina 1063BYDGOSZCZK30188K 48800:01:5500:35:42.8500:37:38.45+00:16:447:088.4
189BOROWIAK Agnieszka 942TEAM RUN KCYNIAKCYNIAK30189K 48900:01:4200:35:43.3500:37:25.50+00:16:457:088.4
190JAROCH Magdalena 225ZS 19BYDGOSZCZK30190K 49200:00:5700:35:47.9000:36:45.75+00:16:497:098.4
191NADRAJKOWSKA Joanna 28DZIKIE KUNYINOWROCŁAWK30191K 49600:01:0400:35:56.9500:37:01.35+00:16:597:118.3
192PIEKUŚ Aleksandra 413PĘDZĄCE KUNYBYDGOSZCZK30192K 49900:01:2600:36:08.4500:37:34.95+00:17:107:138.3
193MAJKOWSKA-LUBIŃSKA Judyta 372CS GROUP RUNNERS TEAMBYDGOSZCZK30193K 50200:01:2300:36:12.2500:37:35.80+00:17:147:148.3
194NOWAKOWSKA Anna 42BYDGOSZCZK30194K 50500:00:5100:36:22.3500:37:13.45+00:17:247:168.2
195KAMIŃSKA Monika 469BYDGOSZCZK30195K 51400:01:4800:36:57.8000:38:46.00+00:17:597:238.1
196GRZYBOWSKA Alicja 1193BYLE DO METYBYDGOSZCZK30196K 51500:00:5400:37:07.4000:38:02.20+00:18:097:258.1
197TESKE Karolina 1001BYDGOSZCZK30197K 52000:02:0400:37:55.2500:40:00.10+00:18:577:357.9
198WILCZYŃSKA Karolina 1014BYDGOSZCZK30198K 52100:02:0400:37:56.0000:40:00.80+00:18:587:357.9
199KOZIEŁ Monika 1003BYDGOSZCZK30199K 52200:01:2900:38:04.8500:39:34.40+00:19:067:377.9
200ARACH Daria 962BYDGOSZCZK30200K 52700:02:0200:38:55.4500:40:58.35+00:19:577:477.7
201OLECHNOWICZ Ana 1344BYDGOSZCZK30201K 52800:01:5000:39:09.0500:40:59.75+00:20:117:497.7
202PINCZEWSKA Dorota 1104STRZELCE DOLNEK30202K 52900:02:0000:39:10.2500:41:10.25+00:20:127:507.7
203KASPRZYK Daria 1188BYDGOSZCZK30203K 53000:02:0300:39:23.2000:41:27.00+00:20:257:527.6
204GROT Monika 1176ŁOCHOWOK30204K 53100:02:0300:39:23.5500:41:26.85+00:20:257:527.6
Znaleziono 204 wynik(ów)